Regional Weather Roundup
Issued by NWS Charleston, SC

Current Version | Previous Version | Graphics & Text | Print | Product List | Glossary On
Versions: 1 2 3 4 5 6 7 8 9 10 11 12 13 14 15 16 17 18 19 20 21 22 23 24 25 26 27 28 29 30 31 32 33 34 35 36 37 38 39 40 41 42 43 44 45 46 47 48 49 50
302 ASUS42 KCHS 300127 RWRCHS REGIONAL WEATHER ROUNDUP NATIONAL WEATHER SERVICE CHARLESTON SC 900 PM EDT MON MAY 29 2017 NOTE: "FAIR" INDICATES FEW OR NO CLOUDS BELOW 12,000 FEET WITH NO SIGNIFICANT WEATHER AND/OR OBSTRUCTIONS TO VISIBILITY. NOT ALL STATIONS ARE QUALITY CONTROLLED. USE DATA WITH CAUTION... ESPECIALLY DEWPOINT OBSERVATIONS. SCZ027-030-031-034>040-042>050-300200- ...SOUTHEAST SOUTH CAROLINA... CITY SKY/WX TMP DP RH WIND PRES REMARKS N CHARLESTON PTCLDY 79 68 69 SW10 30.00R WATERFRONT PRK N/A 80 73 79 SW7 29.97R JOHNS ISLAND FAIR 79 70 73 S8 30.01R PINOPOLIS N/A 82 75 78 VRB2 29.91R MONCKS CORNER FAIR 81 70 69 S6 29.99S SUMMERVILLE FAIR 79 72 78 S3 30.00S BEAUFORT MCAS PTCLDY 80 74 81 S3 30.00R BEAUFORT ARPT FAIR 79 72 78 S7 30.01R HILTON HEAD IS PTCLDY 81 75 83 S6 30.02R WALTERBORO PTCLDY 79 72 78 S5 30.01R ALLENDALE FAIR 82 68 61 N10G20 29.99R ...SOUTHERN MIDLANDS AND PEE DEE... CITY SKY/WX TMP DP RH WIND PRES REMARKS GEORGETOWN FAIR 77 72 83 S8 30.01S KINGSTREE MOCLDY 79 72 78 CALM 29.98S ORANGEBURG CLOUDY 77 65 66 NW9 30.02R BARNWELL FAIR 77 68 73 NW7 30.02S AIKEN FAIR 66 64 94 CALM 30.05F MANNING FAIR 81 72 74 N6 29.97F COLUMBIA LGT RAIN 73 69 87 NW9 30.00F SUMTER LGT RAIN 72 68 88 NW9 29.99F FLORENCE CLOUDY 81 69 67 W3 30.00R MYRTLE BEACH CLEAR 79 72 78 SW14 30.00R N MYRTLE BEACH CLEAR 78 73 84 SW12 30.00R $$ GAZ063-065-086>088-099>101-113>116-118-119-134>141-150-300200- ...SOUTHEAST GEORGIA... CITY SKY/WX TMP DP RH WIND PRES REMARKS SAVANNAH ARPT MOCLDY 82 72 71 S8 30.01R HUNTER AAF PTCLDY 80 77 89 CALM 29.98R FORT STEWART PTCLDY 83 73 72 SE6 29.98R STATESBORO CLOUDY 74 74 100 CALM 30.00S SYLVANIA CLOUDY 81 72 73 SW6 30.01S CLAXTON FAIR 78 76 94 CALM 30.01S ...CSRA...CENTRAL AND FAR SOUTHEAST GEORGIA... CITY SKY/WX TMP DP RH WIND PRES REMARKS THOMSON CLEAR 69 68 97 N3 30.08S AUGUSTA-BUSH CLOUDY 74 69 85 N7 30.01S AUGUSTA-DANIEL PTCLDY 72 67 84 CALM 30.03R SWAINSBORO FAIR 79 72 78 CALM 30.03R VIDALIA CLEAR 82 72 69 CALM 30.01S EASTMAN FAIR 79 64 60 CALM 30.04R HAZLEHURST FAIR 82 74 77 CALM 29.99S ALMA CLEAR 86 69 56 SW5 30.01R HX 90 WAYCROSS CLEAR 88 73 61 W7 30.01R HX 96 JESUP FAIR 81 70 69 CALM 30.01R BAXLEY LGT RAIN 82 73 74 S3 30.01R BRUNSWICK CLEAR 81 73 78 S7 30.03R SAINT SIMONS CLEAR 82 73 74 S7 30.02R $$ SCZ027-028-034-036>038-045-046-048>050-GAZ119-141-300200- ...LAKE AND SUPPLEMENTAL COASTAL OBSERVATIONS... STATION/POSITION TIME TEMP WIND PRES WAVE SWELL AIR SEA DIR/SP/G HT/PER HT/PER/DIR (UTC) (F) (DEG/KT/KT) (MB) (FT/S) (FT/S/D) WINYAH BAY 0045 79 210/ 9 1016.0R LAKE MURRAY 0020 76 260/ 11/ 12 1016.3R ACE BASIN NERRS 0045 80 CALM 1016.0S FORT PULASKI 0100 80 200/ 6/ 11 1016.5 SAPELO ISLAND 0045 80 180/ 9 1016.0S $$ ANZ835-935-AMZ111-154-330-350-352-354-370-450-454-472-300200- ...C-MAN AND BUOY OBSERVATIONS... STATION/POSITION TIME TEMP WIND PRES WAVE SWELL AIR SEA DIR/SP/G HT/PER HT/PER/DIR (UTC) (F) (DEG/KT/KT) (MB) (FT/S) (FT/S/D) BUOY 41004 0110 78 77 200/ 10/ 12 1015.9 BUOY 41008 0050 80 79 180/ 14/ 16 1015.7R 2/ 3 FOLLY BEACH CMAN 0100 79 200/ 9/ 10 1016.7R CAPERS NEARSHORE 0108 83 79 210/ 12/ 16 1015.6R FRIPP NEARSHORE 0108 80 80 200/ 12/ 16 1015.7R STATION/POSITION TIME TEMP WIND PRES WAVE SWELL AIR SEA DIR/SP/G HT/PER HT/PER/DIR (UTC) (F) (DEG/KT/KT) (MB) (FT/S) (FT/S/D) 5E ST. MARYS GA 0100 80 N/A 2/ 3 FRYING PAN BUOY 0110 77 76 220/ 12/ 14 1016.1 BUOY 41025 0050 78 77 200/ 6/ 8 1016.1R 2/10 2/ 20/10 CAPE LOOKOUT NC 0100 76 210/ 5/ 7 1015.8R BUOY 41002 0050 78 78 250/ 8/ 10 1017.8R 3/ 6 3/230/ 6 BUOY 41010 0110 82 82 160/ 4/ 6 1018.0 ST AUGUSTINE FL 0100 78 80 170/ 12/ 14 1017.8R $$

USA.gov is the U.S. government's official web portal to all federal, state and local government web resources and services.